[[{"header":{"parameterUnit":"m.s-1","parameterCategory":1,"la1":30.2991,"la2":30.254,"lo1":-89.0895,"lo2":-89.0444,"dy":0.0017,"dx":0.0017,"nx":28,"ny":28,"refTime":"2025-12-28T03:00:00:Z","depth":0,"parameterNumber":2,"parameterNumberName":"U-component_of_WINDS"},"data":[0,0,0,0,0,0,0,0,0,0,0,0,0,0,0,0,0,0,0,0,0,0,0,0,0,0,0,0,0,0,0,0,0,0,0,0,0,0,0,0,0,0,0,0,0,0,0,0,0,0,0,0,0,0,0,0,0,0,1.8753,1.8753,0,1.8822,1.8822,1.8823,1.8828,1.8828,1.8827,1.8826,1.8895,1.8898,1.89,0,0,0,0,0,0,0,0,0,0,0,0,0,1.8625,1.8627,1.8752,1.8753,1.8754,1.8822,1.8823,1.8823,1.8829,1.8828,1.8827,1.8826,1.8895,1.8898,1.8901,0,0,0,0,0,0,0,0,0,0,0,0,0,1.8686,1.8628,1.8752,1.8765,1.8767,1.8821,1.8823,1.8824,1.8829,1.8828,1.8826,1.8825,1.8894,1.8897,1.8901,1.8948,0,0,1.8913,1.8915,0,0,0,0,0,0,0,0,1.8682,1.869,1.8762,1.8764,1.8766,1.8815,1.8803,1.8865,1.8829,1.8805,1.8826,1.8825,1.887,1.8875,1.8891,1.8951,1.8954,1.8913,1.8916,1.8917,1.8918,0,0,0,0,0,0,0,1.8678,1.8687,1.878,1.8763,1.8766,1.8767,1.8774,1.8815,1.8843,1.8807,1.8808,1.8816,1.887,1.8887,1.8892,1.8955,1.8913,1.8916,1.8919,1.892,1.9058,1.9059,0,0,0,0,0,0,1.8671,1.8684,1.8778,1.8782,1.8721,1.877,1.8779,1.8801,1.8842,1.8848,1.8817,1.8816,1.8881,1.8888,1.8895,1.8953,1.8917,1.8921,1.8923,1.9057,1.9058,1.906,0,0,0,0,0,0,1.8669,1.868,1.8775,1.8733,1.8745,1.8774,1.8798,1.8803,1.8819,1.885,1.8855,1.8829,1.888,1.889,1.8935,1.8955,1.8922,1.8926,1.9055,1.9057,1.9059,1.9068,0,0,0,0,0,0,1.8665,1.8679,1.8697,1.8733,1.8748,1.8814,1.88,1.8805,1.8826,1.8825,1.8862,1.8867,1.888,1.8929,1.8939,1.896,1.8929,1.9053,1.9056,1.9058,1.9066,1.9071,1.9074,0,0,0,0,0,1.866,1.8696,1.8697,1.8709,1.877,1.8815,1.8823,1.8838,1.8828,1.8846,1.8866,1.8866,1.8952,1.8934,1.8945,1.8967,1.9052,1.9055,1.9058,1.9065,1.907,1.9074,0,0,0,0,0,0,1.866,1.8701,1.8703,1.8752,1.878,1.8816,1.8839,1.8842,1.8874,1.8872,1.8889,1.8897,1.8942,1.8959,1.8938,1.9015,1.9001,1.9006,1.9002,1.9007,1.9011,1.9006,1.8932,0,0,0,0,0,1.8665,1.8698,1.8732,1.8772,1.8786,1.881,1.883,1.8839,1.8869,1.8881,1.8904,1.8932,1.8966,1.8987,1.902,1.9069,1.9078,1.909,1.9094,1.9097,1.9101,1.913,1.9136,1.907,1.907,1.907,0,0,1.8677,1.8704,1.8723,1.8773,1.8795,1.8829,1.882,1.8856,1.8881,1.8886,1.8931,1.8949,1.8982,1.903,1.9052,1.9045,1.9122,1.9101,1.9103,1.9106,1.9134,1.914,1.9145,1.9072,1.9071,1.9071,0,0,1.8716,1.8739,1.8775,1.8799,1.8834,1.885,1.8859,1.8895,1.8907,1.8952,1.8957,1.8987,1.9044,1.9068,1.9088,1.9137,1.9139,1.9147,1.9167,1.9195,1.92,1.9205,1.9223,1.9229,1.9152,1.9152,1.9152,0,1.8726,1.8777,1.8793,1.8829,1.8851,1.8858,1.8895,1.8917,1.8961,1.8976,1.8968,1.9041,1.9064,1.9118,1.913,1.9145,1.9156,1.9143,1.9198,1.9203,1.9207,1.9225,1.9232,1.9152,1.9152,1.9152,1.9152,0,1.8788,1.8823,1.8848,1.8891,1.8916,1.8952,1.8974,1.8997,1.9005,1.9022,1.9068,1.9096,1.9135,1.9148,1.9155,1.9204,1.9199,1.9194,1.918,1.9214,1.9231,1.9238,1.9154,1.9153,1.9153,1.9153,0,0,1.8827,1.888,1.8888,1.8909,1.8949,1.8977,1.9014,1.9052,1.9072,1.9102,1.9134,1.9183,1.918,1.9202,1.9212,1.9236,1.9275,1.9229,1.923,1.9237,1.9331,1.9334,1.9342,1.9277,1.9278,1.9279,1.9328,0,1.887,1.8937,1.8953,1.901,1.9043,1.9051,1.9083,1.9112,1.9129,1.916,1.9179,1.9214,1.9206,1.922,1.9244,1.9265,1.9294,1.9262,1.9306,1.9308,1.9298,1.935,1.9353,1.9399,1.9335,1.9336,1.9337,0,1.8929,1.8962,1.9022,1.9059,1.9074,1.9103,1.914,1.917,1.9202,1.9213,1.9239,1.9247,1.9287,1.9271,1.9325,1.9303,1.9323,1.9336,1.9338,1.9342,1.9324,1.9357,1.9413,1.942,1.9347,1.9346,1.9346,0,1.8952,1.9011,1.9056,1.9072,1.9117,1.9137,1.9156,1.9188,1.921,1.9243,1.9258,1.9295,1.9315,1.9343,1.9361,1.9348,1.9415,1.94,1.9425,1.9425,1.9439,1.9437,1.9499,1.9451,1.9451,1.9451,1.945,0,1.8999,1.9036,1.9067,1.9094,1.9135,1.9154,1.9195,1.9214,1.9243,1.9274,1.9283,1.9312,1.9334,1.9366,1.9381,1.9424,1.9433,1.9443,1.9447,1.9443,1.9441,1.9455,1.9453,1.9452,1.9452,1.9452,1.9451,0,1.9032,1.9054,1.9102,1.9141,1.9151,1.918,1.9213,1.924,1.9258,1.9298,1.9308,1.9336,1.9375,1.9396,1.9444,1.9454,1.9503,1.9504,1.9492,1.9494,1.9517,1.9515,1.9591,1.9602,1.9545,1.9546,1.9546,0,1.906,1.9088,1.913,1.9152,1.9172,1.9207,1.9231,1.9251,1.9275,1.9315,1.9337,1.9377,1.9409,1.9471,1.9495,1.9533,1.9535,1.9559,1.9541,1.9536,1.9536,1.9534,1.9538,1.9562,1.9563,1.9563,1.9564,0,1.9108,1.9118,1.9152,1.919,1.9218,1.9249,1.9279,1.9297,1.9322,1.9348,1.9389,1.9414,1.9464,1.9503,1.9543,1.9563,1.9568,1.9569,1.9577,1.9573,1.9565,1.9571,1.9501,1.9567,1.9567,1.9567,1.9567,1.9566,1.914,1.9166,1.92,1.9238,1.9263,1.9292,1.9319,1.9341,1.9375,1.9418,1.9427,1.947,1.9503,1.9557,1.9578,1.9612,1.9607,1.9618,1.9621,1.9624,1.9625,1.956,1.9619,1.9619,1.9619,1.9619,1.9619,0,1.9189,1.9211,1.9246,1.9289,1.9319,1.9322,1.9356,1.9381,1.9418,1.9449,1.9481,1.9528,1.9566,1.9595,1.9634,1.9656,1.9659,1.9666,1.9664,1.9669,1.9627,1.9616,1.9662,1.9662,1.9662,1.9662,1.9662,1.9662,1.9218,1.9263,1.9277,1.9335,1.9357,1.9399,1.9419,1.9446,1.947,1.9522,1.9555,1.9573,1.9603,1.9645,1.9681,1.9689,1.9703,1.9709,1.9717,1.9676,1.9672,1.9667,1.9658,1.9712,1.9712,1.9757,1.9757,1.9757]},{"header":{"parameterUnit":"m.s-1","parameterCategory":1,"la1":30.2991,"la2":30.254,"lo1":-89.0895,"lo2":-89.0444,"dy":0.0017,"dx":0.0017,"nx":28,"ny":28,"refTime":"2025-12-28T03:00:00:Z","depth":0,"parameterNumber":3,"parameterNumberName":"V-component_of_WINDS"},"data":[0,0,0,0,0,0,0,0,0,0,0,0,0,0,0,0,0,0,0,0,0,0,0,0,0,0,0,0,0,0,0,0,0,0,0,0,0,0,0,0,0,0,0,0,0,0,0,0,0,0,0,0,0,0,0,0,0,0,-10.2858,-10.2861,0,-10.3087,-10.309,-10.3092,-10.3017,-10.3012,-10.3007,-10.3003,-10.3226,-10.3236,-10.3246,0,0,0,0,0,0,0,0,0,0,0,0,0,-10.2346,-10.2356,-10.2858,-10.2861,-10.2864,-10.3087,-10.309,-10.3093,-10.3018,-10.3012,-10.3006,-10.3001,-10.3222,-10.3235,-10.3247,0,0,0,0,0,0,0,0,0,0,0,0,0,-10.2571,-10.236,-10.2857,-10.2854,-10.2856,-10.3086,-10.309,-10.3094,-10.3019,-10.3012,-10.3005,-10.2998,-10.3218,-10.3233,-10.3249,-10.3493,0,0,-10.3297,-10.3304,0,0,0,0,0,0,0,0,-10.2558,-10.259,-10.2851,-10.2854,-10.2857,-10.3016,-10.2991,-10.3227,-10.3021,-10.2957,-10.3003,-10.2994,-10.3161,-10.3181,-10.324,-10.3504,-10.3513,-10.3299,-10.3308,-10.3315,-10.3319,0,0,0,0,0,0,0,-10.2543,-10.258,-10.2948,-10.2855,-10.2859,-10.2837,-10.2861,-10.3035,-10.3097,-10.2962,-10.2957,-10.2986,-10.3161,-10.3225,-10.3245,-10.3517,-10.3298,-10.3312,-10.3322,-10.3328,-10.3994,-10.4002,0,0,0,0,0,0,-10.2527,-10.2567,-10.2941,-10.2955,-10.2687,-10.2852,-10.2879,-10.2972,-10.3095,-10.3107,-10.2992,-10.2981,-10.3202,-10.3226,-10.3252,-10.3548,-10.3315,-10.333,-10.3339,-10.3986,-10.3996,-10.4005,0,0,0,0,0,0,-10.2517,-10.2561,-10.2932,-10.276,-10.2806,-10.2869,-10.2974,-10.2981,-10.3044,-10.3118,-10.3127,-10.3046,-10.3197,-10.323,-10.3435,-10.3554,-10.3337,-10.3351,-10.3976,-10.3989,-10.4,-10.414,0,0,0,0,0,0,-10.2502,-10.2558,-10.2654,-10.2763,-10.2815,-10.3114,-10.2982,-10.299,-10.3073,-10.3062,-10.3172,-10.3182,-10.3194,-10.3412,-10.3451,-10.3572,-10.3363,-10.3965,-10.3982,-10.3996,-10.4125,-10.4156,-10.4182,0,0,0,0,0,-10.2484,-10.2681,-10.2659,-10.2704,-10.2937,-10.3121,-10.3151,-10.3163,-10.3083,-10.3179,-10.3226,-10.3179,-10.3535,-10.3434,-10.3477,-10.3604,-10.3958,-10.3977,-10.3995,-10.4112,-10.415,-10.4181,0,0,0,0,0,0,-10.2579,-10.2695,-10.2672,-10.2911,-10.3008,-10.3108,-10.3229,-10.3202,-10.332,-10.3304,-10.331,-10.3335,-10.3547,-10.3596,-10.3481,-10.3848,-10.3734,-10.3762,-10.3809,-10.3845,-10.3873,-10.3856,-10.3376,0,0,0,0,0,-10.2629,-10.2773,-10.2864,-10.3066,-10.3116,-10.3165,-10.3245,-10.3247,-10.3346,-10.3385,-10.3447,-10.3542,-10.3675,-10.3762,-10.3889,-10.4132,-10.4154,-10.4241,-10.4269,-10.4292,-10.4316,-10.4449,-10.4489,-10.4065,-10.4065,-10.4065,0,0,-10.2731,-10.2812,-10.2901,-10.3087,-10.3162,-10.3309,-10.3199,-10.3358,-10.3466,-10.3407,-10.3607,-10.3656,-10.3762,-10.3988,-10.409,-10.4035,-10.4438,-10.4316,-10.4334,-10.4345,-10.4472,-10.4512,-10.4548,-10.4078,-10.4076,-10.4074,0,0,-10.2992,-10.3068,-10.3246,-10.3325,-10.3442,-10.3473,-10.3516,-10.3623,-10.3654,-10.3855,-10.3816,-10.3942,-10.4171,-10.4249,-10.4318,-10.4613,-10.4574,-10.4653,-10.4801,-10.4931,-10.4964,-10.4994,-10.51,-10.5137,-10.4677,-10.4677,-10.4677,0,-10.3103,-10.3326,-10.3339,-10.3504,-10.3586,-10.3545,-10.3724,-10.3798,-10.3948,-10.4005,-10.3942,-10.4231,-10.4299,-10.4543,-10.4616,-10.4673,-10.4721,-10.4641,-10.4959,-10.4989,-10.5017,-10.5117,-10.5157,-10.4686,-10.4685,-10.4684,-10.4683,0,-10.3457,-10.3612,-10.374,-10.3893,-10.3989,-10.4159,-10.4197,-10.4292,-10.4286,-10.4323,-10.4528,-10.4609,-10.4753,-10.481,-10.4803,-10.5054,-10.5017,-10.4957,-10.4842,-10.5066,-10.5161,-10.5199,-10.4699,-10.4696,-10.4693,-10.4691,0,0,-10.3783,-10.3944,-10.3991,-10.406,-10.4187,-10.4305,-10.4473,-10.4618,-10.47,-10.4805,-10.4945,-10.5142,-10.5089,-10.5167,-10.5169,-10.5283,-10.5512,-10.5209,-10.5211,-10.5263,-10.5794,-10.5839,-10.5884,-10.5487,-10.5495,-10.5501,-10.5785,0,-10.4055,-10.4356,-10.4374,-10.4644,-10.4787,-10.4751,-10.4897,-10.499,-10.503,-10.5154,-10.5195,-10.5336,-10.5254,-10.5302,-10.5413,-10.5461,-10.5619,-10.544,-10.5615,-10.5622,-10.5591,-10.5933,-10.5981,-10.6246,-10.5822,-10.5829,-10.5833,0,-10.4413,-10.4536,-10.4822,-10.4932,-10.4992,-10.5124,-10.5259,-10.5379,-10.5482,-10.5503,-10.5594,-10.558,-10.5749,-10.563,-10.5863,-10.5741,-10.5814,-10.5848,-10.5859,-10.5875,-10.5741,-10.5959,-10.633,-10.637,-10.5891,-10.5887,-10.5883,0,-10.4624,-10.4859,-10.5062,-10.5122,-10.5254,-10.5348,-10.5406,-10.5503,-10.559,-10.5706,-10.5762,-10.5895,-10.5968,-10.607,-10.6092,-10.6003,-10.6326,-10.6207,-10.6346,-10.6346,-10.6415,-10.6411,-10.6804,-10.6462,-10.6461,-10.646,-10.6459,0,-10.4927,-10.5103,-10.5159,-10.5283,-10.548,-10.5498,-10.569,-10.5742,-10.5829,-10.5961,-10.5936,-10.606,-10.6081,-10.6209,-10.6226,-10.6417,-10.6449,-10.6469,-10.6472,-10.6472,-10.647,-10.652,-10.6502,-10.6471,-10.6468,-10.6466,-10.6465,0,-10.5194,-10.5239,-10.5458,-10.5567,-10.5598,-10.5739,-10.583,-10.5948,-10.5986,-10.6154,-10.6194,-10.6252,-10.6401,-10.6434,-10.6608,-10.662,-10.6847,-10.6831,-10.6814,-10.6813,-10.695,-10.6937,-10.7389,-10.745,-10.7068,-10.7071,-10.7074,0,-10.5385,-10.5521,-10.5647,-10.5736,-10.5801,-10.5943,-10.6033,-10.6056,-10.6149,-10.628,-10.6382,-10.6529,-10.6649,-10.6888,-10.6944,-10.7078,-10.7065,-10.7215,-10.7085,-10.7082,-10.7069,-10.7061,-10.7075,-10.7239,-10.7243,-10.7247,-10.7249,0,-10.5719,-10.5735,-10.5868,-10.601,-10.6119,-10.623,-10.6335,-10.6408,-10.6445,-10.6551,-10.6706,-10.6799,-10.6982,-10.7128,-10.7263,-10.7319,-10.7291,-10.729,-10.7329,-10.7331,-10.7316,-10.7327,-10.6883,-10.7279,-10.7276,-10.7274,-10.7272,-10.7271,-10.5955,-10.6075,-10.6183,-10.6332,-10.6415,-10.6515,-10.6633,-10.6688,-10.6819,-10.6972,-10.6976,-10.7146,-10.7246,-10.7425,-10.7491,-10.7621,-10.7574,-10.7631,-10.7645,-10.7659,-10.7673,-10.7296,-10.7645,-10.7644,-10.7644,-10.7643,-10.7642,0,-10.6288,-10.6357,-10.6494,-10.6646,-10.6763,-10.673,-10.6846,-10.6945,-10.7096,-10.7194,-10.7314,-10.7492,-10.7635,-10.7703,-10.7844,-10.7935,-10.7926,-10.7971,-10.7964,-10.7978,-10.7706,-10.7658,-10.7977,-10.7977,-10.7977,-10.7977,-10.7976,-10.7976,-10.6475,-10.6678,-10.6707,-10.695,-10.7016,-10.7186,-10.7255,-10.7347,-10.7426,-10.7628,-10.7749,-10.7794,-10.788,-10.8027,-10.8156,-10.8172,-10.8225,-10.8277,-10.8287,-10.8031,-10.7997,-10.7965,-10.792,-10.8288,-10.8289,-10.8549,-10.8551,-10.8553]}]]